Hatsu Envoy — VSQL9 — position and weather

sailwx.info

Track history (hours):
 
Tides and Currents Weather Stations Pressure Air Temp Water Temp Dewpoint Dewpoint Depression Visibility Wind Speed Wind Dir Waves Ship Positions

Hatsu Envoy

Last reported at 2014-Jul-20 13:33 UTC. Time now 2014-Jul-23 19:52 UTC.
Position N 22°34' E 114°16'.

Type: Ship (hazmat cat D). MMSI: 235414000.

Date/timePositionNaut miles runAvg speedWind from/ knotsBaromVisibWave heightAir tempDewpointWater temp
2014-Jul-20 13:33N 22°34' E 114°16'0 0.4
2014-Jul-20 12:28N 22°34' E 114°16'0 0.0
2014-Jul-20 11:28N 22°34' E 114°16'0 0.0
2014-Jul-20 10:28N 22°34' E 114°16'0 0.0
2014-Jul-20 09:22N 22°34' E 114°16'0 0.0
2014-Jul-20 08:28N 22°34' E 114°16'0 0.0
2014-Jul-20 07:28N 22°34' E 114°16'0 0.0
2014-Jul-20 06:28N 22°34' E 114°16'0 0.0
2014-Jul-20 05:28N 22°34' E 114°16'0 0.0
2014-Jul-20 04:28N 22°34' E 114°16'0 0.0
2014-Jul-20 03:28N 22°34' E 114°16'0 0.0
2014-Jul-20 02:28N 22°34' E 114°16'0 0.4
2014-Jul-20 01:33N 22°34' E 114°16'18 3.5
2014-Jul-19 20:30N 22°19' E 114°05'1110.3
2014-Jul-19 19:28N 22°22' E 113°54'5 5.7
2014-Jul-19 18:33N 22°27' E 113°54'0 0.1
2014-Jul-19 17:27N 22°27' E 113°54'0 0.0
2014-Jul-19 16:33N 22°27' E 113°54'0 0.0
2014-Jul-19 15:33N 22°27' E 113°54'0 0.0
2014-Jul-19 14:33N 22°27' E 113°54'0 0.0
2014-Jul-19 13:33N 22°27' E 113°54'0 0.0
2014-Jul-19 12:15N 22°27' E 113°54'0 0.0
2014-Jul-19 11:33N 22°27' E 113°54'0 0.0
2014-Jul-19 10:33N 22°27' E 113°54'0 0.0
2014-Jul-19 09:33N 22°27' E 113°54'0 0.0
2014-Jul-19 08:33N 22°27' E 113°54'0 0.0
2014-Jul-19 07:33N 22°27' E 113°54'0 0.0
2014-Jul-19 06:33N 22°27' E 113°54'3 2.9
2014-Jul-19 05:33N 22°24' E 113°53'  
2014-Jul-16 19:32N 22°46' E 117°00'2417.9
2014-Jul-16 18:13N 22°58' E 117°22'6417.4
2014-Jul-16 14:32N 23°35' E 118°19'4117.4
2014-Jul-16 12:10N 23°58' E 118°57'1218.2
2014-Jul-16 11:32N 24°04' E 119°07'1818.5
2014-Jul-16 10:34N 24°16' E 119°22'2418.8
2014-Jul-16 09:16N 24°30' E 119°44'2118.5
2014-Jul-16 08:07N 24°41' E 120°04'1218.4
2014-Jul-16 07:28N 24°48' E 120°15'302 7.9
2014-Jul-14 17:25N 29°25' E 122°29'1517.2
2014-Jul-14 16:33N 29°40' E 122°26'1211.9
2014-Jul-14 15:33N 29°47' E 122°16'1010.0
2014-Jul-14 14:33N 29°55' E 122°09'6 5.0
2014-Jul-14 13:23N 29°54' E 122°02'0 0.0
2014-Jul-14 12:30N 29°54' E 122°02'0 0.0
2014-Jul-14 11:30N 29°54' E 122°02'0 0.0
2014-Jul-14 10:30N 29°54' E 122°02'0 0.0
2014-Jul-14 09:29N 29°54' E 122°02'0 0.0
2014-Jul-14 08:30N 29°54' E 122°02'0 0.0
2014-Jul-14 07:30N 29°54' E 122°02'0 0.0
2014-Jul-14 06:30N 29°54' E 122°02'0 0.0
2014-Jul-14 05:29N 29°54' E 122°02'0 0.0
2014-Jul-14 04:30N 29°54' E 122°02'0 0.0
2014-Jul-14 03:29N 29°54' E 122°02'0 0.0
2014-Jul-14 02:29N 29°54' E 122°02'0 0.0
2014-Jul-14 01:33N 29°54' E 122°02'0 0.0
2014-Jul-14 00:33N 29°54' E 122°02'0 0.0
2014-Jul-13 23:33N 29°54' E 122°02'0 0.4
2014-Jul-13 22:33N 29°54' E 122°02'5 4.7
2014-Jul-13 21:33N 29°55' E 122°07'7 6.9
2014-Jul-13 20:34N 29°50' E 122°13'9 8.8
2014-Jul-13 19:33N 29°45' E 122°21'1211.9
2014-Jul-13 18:33N 29°48' E 122°34'0 0.2
2014-Jul-13 17:33N 29°48' E 122°34'0 0.1
2014-Jul-13 16:21N 29°48' E 122°34'0 0.1
2014-Jul-13 15:33N 29°48' E 122°34'0 0.0
2014-Jul-13 14:16N 29°48' E 122°34'0 0.1
2014-Jul-13 13:33N 29°48' E 122°34'0 0.1
2014-Jul-13 12:33N 29°48' E 122°34'0 0.1
2014-Jul-13 11:33N 29°48' E 122°34'0 0.1
2014-Jul-13 10:33N 29°48' E 122°34'0 0.1
2014-Jul-13 09:33N 29°48' E 122°34'0 0.1
2014-Jul-13 08:34N 29°48' E 122°34'0 0.0
2014-Jul-13 07:34N 29°48' E 122°34'0 0.1
2014-Jul-13 06:33N 29°48' E 122°34'0 0.1
2014-Jul-13 05:27N 29°48' E 122°34'0 0.2
2014-Jul-13 04:34N 29°48' E 122°34'0 0.1
2014-Jul-13 03:33N 29°48' E 122°34'0 0.2
2014-Jul-13 02:33N 29°48' E 122°34'0 0.1
2014-Jul-13 01:10N 29°48' E 122°34'0 0.1
2014-Jul-13 00:33N 29°48' E 122°34'0 0.1
2014-Jul-12 23:27N 29°48' E 122°34'0 0.2
2014-Jul-12 22:34N 29°48' E 122°34'0 0.1
2014-Jul-12 21:33N 29°48' E 122°34'0 0.0
2014-Jul-12 20:33N 29°48' E 122°34'12 8.5
2014-Jul-12 19:06N 29°58' E 122°43'1213.3
2014-Jul-12 18:13N 30°08' E 122°49'914.2
2014-Jul-12 17:33N 30°17' E 122°44'1413.6
2014-Jul-12 16:33N 30°27' E 122°33'1212.2
2014-Jul-12 15:33N 30°32' E 122°21'1010.3
2014-Jul-12 14:33N 30°34' E 122°09'6 2.8
2014-Jul-12 12:30N 30°37' E 122°03'0 0.0
2014-Jul-12 11:18N 30°37' E 122°03'0 0.0
2014-Jul-12 09:18N 30°37' E 122°03'0 0.0
2014-Jul-12 08:24N 30°37' E 122°03'0 0.0
2014-Jul-12 07:24N 30°37' E 122°03'0 0.0
2014-Jul-12 06:30N 30°37' E 122°03'0 0.0
2014-Jul-12 05:30N 30°37' E 122°03'0 0.0
2014-Jul-12 04:30N 30°37' E 122°03'0 0.0
2014-Jul-12 03:06N 30°37' E 122°03'0 0.0
2014-Jul-12 02:30N 30°37' E 122°03'0 0.5
2014-Jul-12 01:33N 30°37' E 122°03'1 0.7
2014-Jul-12 00:33N 30°37' E 122°03'1111.3
2014-Jul-11 23:33N 30°34' E 122°16'10 9.7
2014-Jul-11 22:33N 30°31' E 122°27'2 1.8
2014-Jul-11 21:29N 30°29' E 122°28'0 0.0
2014-Jul-11 20:29N 30°29' E 122°28'0 0.0
2014-Jul-11 19:17N 30°29' E 122°28'0 0.1
2014-Jul-11 18:23N 30°29' E 122°28'0 0.1
2014-Jul-11 17:29N 30°29' E 122°28'0 0.1
2014-Jul-11 16:05N 30°30' E 122°28'0 0.2
2014-Jul-11 15:05N 30°30' E 122°28'0 0.1
2014-Jul-11 14:17N 30°30' E 122°28'0 0.4
2014-Jul-11 13:34N 30°30' E 122°28'1010.1
2014-Jul-11 12:33N 30°33' E 122°39'1414.1
2014-Jul-11 11:33N 30°36' E 122°55'1312.8
2014-Jul-11 10:33N 30°49' E 122°56'9913.9
2014-Jul-11 03:25N 32°29' E 122°56'  
Track history (hours):
 
Tides and Currents Weather Stations Pressure Air Temp Water Temp Dewpoint Dewpoint Depression Visibility Wind Speed Wind Dir Waves Ship Positions

Hatsu Envoy

Last reported at 2014-Jul-20 13:33 UTC. Time now 2014-Jul-23 19:52 UTC.
Position N 22°34' E 114°16'.

Type: Ship (hazmat cat D). MMSI: 235414000.

Date/timePositionNaut miles runAvg speedWind from/ knotsBaromVisibWave heightAir tempDewpointWater temp
2014-Jul-20 13:33N 22°34' E 114°16'0 0.4
2014-Jul-20 12:28N 22°34' E 114°16'0 0.0
2014-Jul-20 11:28N 22°34' E 114°16'0 0.0
2014-Jul-20 10:28N 22°34' E 114°16'0 0.0
2014-Jul-20 09:22N 22°34' E 114°16'0 0.0
2014-Jul-20 08:28N 22°34' E 114°16'0 0.0
2014-Jul-20 07:28N 22°34' E 114°16'0 0.0
2014-Jul-20 06:28N 22°34' E 114°16'0 0.0
2014-Jul-20 05:28N 22°34' E 114°16'0 0.0
2014-Jul-20 04:28N 22°34' E 114°16'0 0.0
2014-Jul-20 03:28N 22°34' E 114°16'0 0.0
2014-Jul-20 02:28N 22°34' E 114°16'0 0.4
2014-Jul-20 01:33N 22°34' E 114°16'18 3.5
2014-Jul-19 20:30N 22°19' E 114°05'1110.3
2014-Jul-19 19:28N 22°22' E 113°54'5 5.7
2014-Jul-19 18:33N 22°27' E 113°54'0 0.1
2014-Jul-19 17:27N 22°27' E 113°54'0 0.0
2014-Jul-19 16:33N 22°27' E 113°54'0 0.0
2014-Jul-19 15:33N 22°27' E 113°54'0 0.0
2014-Jul-19 14:33N 22°27' E 113°54'0 0.0
2014-Jul-19 13:33N 22°27' E 113°54'0 0.0
2014-Jul-19 12:15N 22°27' E 113°54'0 0.0
2014-Jul-19 11:33N 22°27' E 113°54'0 0.0
2014-Jul-19 10:33N 22°27' E 113°54'0 0.0
2014-Jul-19 09:33N 22°27' E 113°54'0 0.0
2014-Jul-19 08:33N 22°27' E 113°54'0 0.0
2014-Jul-19 07:33N 22°27' E 113°54'0 0.0
2014-Jul-19 06:33N 22°27' E 113°54'3 2.9
2014-Jul-19 05:33N 22°24' E 113°53'  
2014-Jul-16 19:32N 22°46' E 117°00'2417.9
2014-Jul-16 18:13N 22°58' E 117°22'6417.4
2014-Jul-16 14:32N 23°35' E 118°19'4117.4
2014-Jul-16 12:10N 23°58' E 118°57'1218.2
2014-Jul-16 11:32N 24°04' E 119°07'1818.5
2014-Jul-16 10:34N 24°16' E 119°22'2418.8
2014-Jul-16 09:16N 24°30' E 119°44'2118.5
2014-Jul-16 08:07N 24°41' E 120°04'1218.4
2014-Jul-16 07:28N 24°48' E 120°15'302 7.9
2014-Jul-14 17:25N 29°25' E 122°29'1517.2
2014-Jul-14 16:33N 29°40' E 122°26'1211.9
2014-Jul-14 15:33N 29°47' E 122°16'1010.0
2014-Jul-14 14:33N 29°55' E 122°09'6 5.0
2014-Jul-14 13:23N 29°54' E 122°02'0 0.0
2014-Jul-14 12:30N 29°54' E 122°02'0 0.0
2014-Jul-14 11:30N 29°54' E 122°02'0 0.0
2014-Jul-14 10:30N 29°54' E 122°02'0 0.0
2014-Jul-14 09:29N 29°54' E 122°02'0 0.0
2014-Jul-14 08:30N 29°54' E 122°02'0 0.0
2014-Jul-14 07:30N 29°54' E 122°02'0 0.0
2014-Jul-14 06:30N 29°54' E 122°02'0 0.0
2014-Jul-14 05:29N 29°54' E 122°02'0 0.0
2014-Jul-14 04:30N 29°54' E 122°02'0 0.0
2014-Jul-14 03:29N 29°54' E 122°02'0 0.0
2014-Jul-14 02:29N 29°54' E 122°02'0 0.0
2014-Jul-14 01:33N 29°54' E 122°02'0 0.0
2014-Jul-14 00:33N 29°54' E 122°02'0 0.0
2014-Jul-13 23:33N 29°54' E 122°02'0 0.4
2014-Jul-13 22:33N 29°54' E 122°02'5 4.7
2014-Jul-13 21:33N 29°55' E 122°07'7 6.9
2014-Jul-13 20:34N 29°50' E 122°13'9 8.8
2014-Jul-13 19:33N 29°45' E 122°21'1211.9
2014-Jul-13 18:33N 29°48' E 122°34'0 0.2
2014-Jul-13 17:33N 29°48' E 122°34'0 0.1
2014-Jul-13 16:21N 29°48' E 122°34'0 0.1
2014-Jul-13 15:33N 29°48' E 122°34'0 0.0
2014-Jul-13 14:16N 29°48' E 122°34'0 0.1
2014-Jul-13 13:33N 29°48' E 122°34'0 0.1
2014-Jul-13 12:33N 29°48' E 122°34'0 0.1
2014-Jul-13 11:33N 29°48' E 122°34'0 0.1
2014-Jul-13 10:33N 29°48' E 122°34'0 0.1
2014-Jul-13 09:33N 29°48' E 122°34'0 0.1
2014-Jul-13 08:34N 29°48' E 122°34'0 0.0
2014-Jul-13 07:34N 29°48' E 122°34'0 0.1
2014-Jul-13 06:33N 29°48' E 122°34'0 0.1
2014-Jul-13 05:27N 29°48' E 122°34'0 0.2
2014-Jul-13 04:34N 29°48' E 122°34'0 0.1
2014-Jul-13 03:33N 29°48' E 122°34'0 0.2
2014-Jul-13 02:33N 29°48' E 122°34'0 0.1
2014-Jul-13 01:10N 29°48' E 122°34'0 0.1
2014-Jul-13 00:33N 29°48' E 122°34'0 0.1
2014-Jul-12 23:27N 29°48' E 122°34'0 0.2
2014-Jul-12 22:34N 29°48' E 122°34'0 0.1
2014-Jul-12 21:33N 29°48' E 122°34'0 0.0
2014-Jul-12 20:33N 29°48' E 122°34'12 8.5
2014-Jul-12 19:06N 29°58' E 122°43'1213.3
2014-Jul-12 18:13N 30°08' E 122°49'914.2
2014-Jul-12 17:33N 30°17' E 122°44'1413.6
2014-Jul-12 16:33N 30°27' E 122°33'1212.2
2014-Jul-12 15:33N 30°32' E 122°21'1010.3
2014-Jul-12 14:33N 30°34' E 122°09'6 2.8
2014-Jul-12 12:30N 30°37' E 122°03'0 0.0
2014-Jul-12 11:18N 30°37' E 122°03'0 0.0
2014-Jul-12 09:18N 30°37' E 122°03'0 0.0
2014-Jul-12 08:24N 30°37' E 122°03'0 0.0
2014-Jul-12 07:24N 30°37' E 122°03'0 0.0
2014-Jul-12 06:30N 30°37' E 122°03'0 0.0
2014-Jul-12 05:30N 30°37' E 122°03'0 0.0
2014-Jul-12 04:30N 30°37' E 122°03'0 0.0
2014-Jul-12 03:06N 30°37' E 122°03'0 0.0
2014-Jul-12 02:30N 30°37' E 122°03'0 0.5
2014-Jul-12 01:33N 30°37' E 122°03'1 0.7
2014-Jul-12 00:33N 30°37' E 122°03'1111.3
2014-Jul-11 23:33N 30°34' E 122°16'10 9.7
2014-Jul-11 22:33N 30°31' E 122°27'2 1.8
2014-Jul-11 21:29N 30°29' E 122°28'0 0.0
2014-Jul-11 20:29N 30°29' E 122°28'0 0.0
2014-Jul-11 19:17N 30°29' E 122°28'0 0.1
2014-Jul-11 18:23N 30°29' E 122°28'0 0.1
2014-Jul-11 17:29N 30°29' E 122°28'0 0.1
2014-Jul-11 16:05N 30°30' E 122°28'0 0.2
2014-Jul-11 15:05N 30°30' E 122°28'0 0.1
2014-Jul-11 14:17N 30°30' E 122°28'0 0.4
2014-Jul-11 13:34N 30°30' E 122°28'1010.1
2014-Jul-11 12:33N 30°33' E 122°39'1414.1
2014-Jul-11 11:33N 30°36' E 122°55'1312.8
2014-Jul-11 10:33N 30°49' E 122°56'9913.9
2014-Jul-11 03:25N 32°29' E 122°56'  

Dump ship's entire track history